千帆星座-119(QIANFAN-119)

导读

QIANFAN-119(NORAD编号68646)隶属于中国千帆星座,该星座被广泛视为中国版“星链”,旨在从太空提供高速、安全可靠的宽带互联网服务,远期规划规模超万颗卫星以实现全球覆盖。这颗卫星于2026年4月在海南商业航天发射场随长征八号运载火箭发射升空,此次任务共将18颗千帆系列卫星送入预定轨道,标志着千帆星座组网建设加速推进,推动中国低轨宽带通信星座发展进入新阶段。

Basic Information
目录编号:
68646
目录名称:
QIANFAN-119
国际标识:
2026-075L
轨道中心:
EARTH
卫星名称:
千帆星座-119
卫星全名:
千帆星座-119(QIANFAN-119)
卫星状态:
在轨 (已飞行151 天)
发射日期:
2026-04-07 UTC
国别 :
中国 (CN)
星等 :
--
Orbit Information
数据来源 国际轨道数据 AOE轨道数据
星历时间 2026-09-05T11:43:12+0800
9小时前
查看轨道信息
2026-08-31T02:00:00+0800
5天前
查看轨道信息
半长轴 7446.64km 7446.644km
偏心率 0.0002373 0.0002266
轨道倾角 88.989° 88.991°
近地点辐角 91.299° 90.156°
升交点赤经 312.847° 313.399°
平近点角 268.843° 277.438°
近地点 1066.735km 1066.819km
远地点 1070.271km 1070.195km
周期 106.586分钟 106.586分钟
每日圈数 13.510215 13.510205
Detailed Information
卫星平台:
119
覆盖范围:
全球
运营商:
上海垣信卫星科技有限公司
运营商所在国:
中国
使用方式:
暂无
Satellite Introduction
千帆星座,也被称为“G60星链”计划,是中国版“星链”的重要组成部分,旨在打造一个由1.4万多颗低轨宽频多媒体卫星构成的庞大星座。千帆星座计划由上海垣信卫星科技有限公司负责实施,于2023年启动建设。该项目是我国第二个低轨卫星大星座,旨在通过构建庞大的卫星网络,为全球用户提供高质量的通信和宽带互联网服务。
2D Orbit Map
3D Orbit Map
Orbit Altitude Analysis Chart
Orbit Inclination Analysis Chart
Orbit Comprehensive Analysis Chart
View Comprehensive Chart
Conjunction Data List
Event ID Objects TCA Miss Dist (km) Collision Risk Probability Collision Risk Index (CRI) Action
CDM_260904-130306-864606-939023
2026-09-04T
13:03:24+0000
0.534 km
远距离
9.151444E-5 中风险 0.74
CDM_260904-121006-864606-939023
2026-09-04T
12:10:04+0000
0.985 km
远距离
1.352611E-5 中风险 0.58
CDM_260907-210306-278706-864621
2026-09-07T
21:03:05+0000
1.886 km
极远距离
3.047065E-6 低风险 0.45
CDM_260907-191606-278706-864621
2026-09-07T
19:16:26+0000
1.975 km
极远距离
2.698399E-6 低风险 0.44
CDM_260907-172906-278706-864621
2026-09-07T
17:29:47+0000
2.063 km
极远距离
2.417422E-6 低风险 0.43
CDM_260907-154306-278706-864621
2026-09-07T
15:43:08+0000
2.152 km
极远距离
2.188507E-6 低风险 0.42
CDM_260907-135606-278706-864622
2026-09-07T
13:56:29+0000
2.240 km
极远距离
2.000544E-6 低风险 0.41
CDM_260907-120906-278706-864622
2026-09-07T
12:09:50+0000
2.329 km
极远距离
1.844779E-6 低风险 0.4
CDM_260907-102306-278706-864622
2026-09-07T
10:23:11+0000
2.417 km
极远距离
1.714764E-6 低风险 0.4
CDM_260907-083606-278706-864622
2026-09-07T
08:36:32+0000
2.506 km
极远距离
1.605484E-6 低风险 0.39